"Timestamp","TZ","WindDir_Mean (deg)","WindSpd_Mean (km/h)","WindSpd_Min (km/h)","WindSpd_Max (km/h)","Temp_Mean (deg)","RH_Mean (%)","MSLP_Mean (hPa)","Rain_Acc (mm)","Rain_Intensity (mm/h)","Hail_Acc (hits/cm2)","Hail_Intensity (hits/cm2hr)","Solar_Mean (W/m2)"
2018/03/16 00:00:00.000,n,255,3.6,2.88,4.68,21.1,78.4,1014.82,0,0,0,0,0.024376
2018/03/16 00:01:00.000,n,255,3.24,3.24,3.6,21.1,77.6,1014.82,0,0,0,0,0.024376
2018/03/16 00:02:00.000,n,232,2.16,1.8,2.16,21.1,77.4,1014.82,0,0,0,0,0.026093
2018/03/16 00:03:00.000,n,240,2.52,2.16,2.52,21.1,77.3,1014.82,0,0,0,0,0.022621
2018/03/16 00:04:00.005,n,301,2.52,0.72,2.88,21,77.3,1014.82,0,0,0,0,0.025215
2018/03/16 00:05:00.002,n,5,1.08,1.08,1.44,21,77.4,1014.72,0,0,0,0,0.025215
2018/03/16 00:06:00.000,n,0,0.72,0.36,1.08,21,77.6,1014.72,0,0,0,0,0.025215
2018/03/16 00:07:00.012,n,84,1.44,1.08,1.8,21,77.5,1014.72,0,0,0,0,0.021744
2018/03/16 00:08:00.009,n,140,1.44,1.08,1.8,20.9,77.7,1014.72,0,0,0,0,0.023499
2018/03/16 00:09:00.006,n,31,1.08,0.36,1.08,20.9,77.8,1014.72,0,0,0,0,0.022621
2018/03/16 00:10:00.000,n,81,2.52,2.16,2.88,20.9,77.8,1014.72,0,0,0,0,0.024376
2018/03/16 00:11:00.000,n,62,2.16,1.8,2.16,20.9,77.8,1014.72,0,0,0,0,0.022621
2018/03/16 00:12:00.000,n,27,1.44,1.08,1.44,20.8,78.2,1014.72,0,0,0,0,0.021744
2018/03/16 00:13:00.000,n,266,1.08,0.36,2.16,20.8,78.2,1014.72,0,0,0,0,0.020866
2018/03/16 00:14:00.008,n,58,0.72,0.36,0.72,20.8,78.3,1014.72,0,0,0,0,0.018272
2018/03/16 00:15:00.006,n,14,1.44,1.08,1.8,20.8,78.4,1014.72,0,0,0,0,0.021744
2018/03/16 00:16:00.002,n,52,1.44,0.72,2.16,20.8,78.5,1014.62,0,0,0,0,0.020866
2018/03/16 00:17:00.000,n,65,0.72,0,1.8,20.8,78.5,1014.62,0,0,0,0,0.012169
2018/03/16 00:18:00.013,n,111,2.16,2.16,2.16,20.8,78.3,1014.62,0,0,0,0,0.017395
2018/03/16 00:19:00.000,n,72,2.16,1.8,2.52,20.7,78.4,1014.62,0,0,0,0,0.017395
2018/03/16 00:20:00.000,n,321,0.36,0.36,0.72,20.7,78.8,1014.52,0,0,0,0,0.016518
2018/03/16 00:21:00.000,n,76,1.8,1.8,2.16,20.7,79.1,1014.52,0,0,0,0,0.018272
2018/03/16 00:22:00.000,n,50,2.52,2.16,2.88,20.7,79.7,1014.52,0,0,0,0,0.01564
2018/03/16 00:23:00.006,n,70,1.44,0.72,1.8,20.8,79.9,1014.52,0,0,0,0,0.01915
2018/03/16 00:24:00.004,n,260,0.36,0,0.72,20.8,79.7,1014.42,0,0,0,0,0.020866
2018/03/16 00:25:00.001,n,63,1.44,1.44,1.8,20.8,79.7,1014.42,0,0,0,0,0.018272
2018/03/16 00:26:00.015,n,77,1.08,0.36,1.08,20.8,79.6,1014.42,0,0,0,0,0.014801
2018/03/16 00:27:00.011,n,354,1.44,1.08,1.44,20.8,79.9,1014.42,0,0,0,0,0.028725
2018/03/16 00:28:00.000,n,343,1.08,0.72,1.08,20.8,80.7,1014.42,0,0,0,0,0.039177
2018/03/16 00:29:00.003,n,60,1.08,0.36,1.44,20.8,80.6,1014.42,0,0,0,0,0.034828
2018/03/16 00:30:00.000,n,261,1.08,0.36,1.8,20.8,80.3,1014.32,0,0,0,0,0.036583
2018/03/16 00:31:00.000,n,306,0.72,0.36,2.16,20.7,80.1,1014.32,0,0,0,0,0.033951
2018/03/16 00:32:00.000,n,240,1.44,0.72,2.16,20.7,80.1,1014.42,0,0,0,0,0.031357
2018/03/16 00:33:00.007,n,275,1.08,0.72,1.44,20.7,80.3,1014.42,0,0,0,0,0.033951
2018/03/16 00:34:00.005,n,230,2.88,2.16,3.24,20.7,80.3,1014.32,0,0,0,0,0.029602
2018/03/16 00:35:00.002,n,226,3.6,3.6,3.6,20.7,80.4,1014.32,0,0,0,0,0.028725
2018/03/16 00:36:00.015,n,247,3.6,2.88,3.96,20.6,80.9,1014.32,0,0,0,0,0.030479
2018/03/16 00:37:00.000,n,234,2.52,1.44,3.6,20.7,81.2,1014.32,0,0,0,0,0.031357
2018/03/16 00:38:00.000,n,238,2.88,2.52,3.24,20.7,81.3,1014.32,0,0,0,0,0.029602
2018/03/16 00:39:00.000,n,262,2.16,1.08,2.88,20.7,81.3,1014.32,0,0,0,0,0.032234
2018/03/16 00:40:00.003,n,221,1.44,0.36,2.88,20.7,81.3,1014.32,0,0,0,0,0.033073
2018/03/16 00:41:00.001,n,243,2.16,1.8,2.88,20.7,81.2,1014.32,0,0,0,0,0.028725
2018/03/16 00:42:00.000,n,255,2.52,2.52,2.88,20.7,81,1014.32,0,0,0,0,0.030479
2018/03/16 00:43:00.011,n,251,2.52,1.44,3.24,20.6,80.9,1014.32,0,0,0,0,0.030479
2018/03/16 00:44:00.008,n,241,3.24,2.88,3.6,20.6,80.9,1014.32,0,0,0,0,0.033073
2018/03/16 00:45:00.005,n,241,4.68,4.32,4.68,20.6,80.9,1014.32,0,0,0,0,0.032234
2018/03/16 00:46:00.003,n,244,4.32,4.32,4.32,20.6,80.7,1014.32,0,0,0,0,0.029602
2018/03/16 00:47:00.000,n,248,5.04,5.04,5.04,20.6,80.6,1014.32,0,0,0,0,0.032234
2018/03/16 00:48:00.000,n,251,5.04,4.68,5.4,20.6,80.5,1014.32,0,0,0,0,0.028725
2018/03/16 00:49:00.000,n,244,4.32,3.96,4.32,20.6,80.3,1014.32,0,0,0,0,0.029602
2018/03/16 00:50:00.006,n,244,4.32,4.32,4.68,20.6,80.2,1014.32,0,0,0,0,0.027847
2018/03/16 00:51:00.003,n,241,5.04,4.68,5.4,20.6,80.3,1014.32,0,0,0,0,0.031357
2018/03/16 00:52:00.000,n,252,5.76,5.04,6.12,20.6,80.1,1014.32,0,0,0,0,0.027847
2018/03/16 00:53:00.014,n,259,5.4,5.04,5.4,20.7,80.2,1014.32,0,0,0,0,0.024376
2018/03/16 00:54:00.011,n,257,4.68,4.68,5.4,20.7,80.3,1014.42,0,0,0,0,0.030479
2018/03/16 00:55:00.000,n,258,5.4,4.68,6.48,20.7,79.8,1014.42,0,0,0,0,0.029602
2018/03/16 00:56:00.000,n,261,5.76,5.04,6.48,20.7,79.5,1014.32,0,0,0,0,0.028725
2018/03/16 00:57:00.002,n,267,3.6,2.88,3.96,20.6,79.4,1014.32,0,0,0,0,0.026131
2018/03/16 00:58:00.000,n,246,4.68,3.6,5.76,20.7,80,1014.32,0,0,0,0,0.027008
2018/03/16 00:59:00.000,n,254,2.88,1.8,3.24,20.7,79.7,1014.32,0,0,0,0,0.028725
2018/03/16 01:00:00.010,n,221,2.52,1.8,2.52,20.7,79.5,1014.22,0,0,0,0,0.027008
2018/03/16 01:01:00.007,n,267,2.88,0.72,3.6,20.6,79.4,1014.22,0,0,0,0,0.028725
2018/03/16 01:02:00.005,n,332,0.36,0,1.44,20.6,79.4,1014.22,0,0,0,0,0.028725
2018/03/16 01:03:00.002,n,245,1.44,0.72,2.16,20.6,79.4,1014.22,0,0,0,0,0.023499
2018/03/16 01:04:00.000,n,189,1.08,0.36,1.8,20.6,79.4,1014.12,0,0,0,0,0.027847
2018/03/16 01:05:00.000,n,263,1.08,0.72,2.16,20.6,79.4,1014.12,0,0,0,0,0.028725
2018/03/16 01:06:00.000,n,246,2.16,1.8,2.52,20.6,79.3,1014.12,0,0,0,0,0.025253
2018/03/16 01:07:00.000,n,228,2.52,2.52,2.88,20.6,79.2,1014.12,0,0,0,0,0.024376
2018/03/16 01:08:00.005,n,258,2.88,2.52,3.6,20.6,79.2,1014.12,0,0,0,0,0.027008
2018/03/16 01:09:00.004,n,251,3.6,3.6,3.96,20.6,79.1,1014.12,0,0,0,0,0.022659
2018/03/16 01:10:00.001,n,276,3.24,3.24,3.6,20.6,79.2,1014.12,0,0,0,0,0.022659
2018/03/16 01:11:00.000,n,238,2.88,2.52,3.24,20.6,79.2,1014.12,0,0,0,0,0.024376
2018/03/16 01:12:00.011,n,237,2.52,1.8,3.24,20.6,79.2,1014.12,0,0,0,0,0.028725
2018/03/16 01:13:00.000,n,218,2.52,2.16,2.88,20.6,79.1,1014.02,0,0,0,0,0.029602
2018/03/16 01:14:00.001,n,209,2.52,2.52,3.24,20.6,79.1,1014.02,0,0,0,0,0.030479
2018/03/16 01:15:00.000,n,232,2.88,2.88,3.24,20.6,79.1,1014.02,0,0,0,0,0.031357
2018/03/16 01:16:00.000,n,242,2.16,1.44,2.88,20.6,79.1,1013.92,0,0,0,0,0.033112
2018/03/16 01:17:00.008,n,30,0.72,0.72,1.08,20.6,79.2,1013.92,0,0,0,0,0.033951
2018/03/16 01:18:00.006,n,127,2.88,2.52,3.24,20.6,79.4,1013.92,0,0,0,0,0.032234
2018/03/16 01:19:00.004,n,122,2.16,1.8,2.16,20.6,79.5,1013.92,0,0,0,0,0.028725
2018/03/16 01:20:00.001,n,161,1.8,1.44,2.16,20.6,79.7,1013.92,0,0,0,0,0.031357
2018/03/16 01:21:00.014,n,197,2.88,2.16,2.88,20.5,79.7,1013.92,0,0,0,0,0.027008
2018/03/16 01:22:00.000,n,198,2.16,1.8,2.52,20.5,80,1013.92,0,0,0,0,0.030479
2018/03/16 01:23:00.000,n,196,2.52,2.52,2.88,20.5,80.1,1013.92,0,0,0,0,0.033112
2018/03/16 01:24:00.000,n,208,2.16,1.8,2.88,20.5,80.2,1013.92,0,0,0,0,0.027885
2018/03/16 01:25:00.002,n,199,2.16,1.44,2.52,20.5,80.3,1013.92,0,0,0,0,0.031357
2018/03/16 01:26:00.000,n,235,1.08,0.36,2.52,20.5,80.3,1013.92,0,0,0,0,0.029602
2018/03/16 01:27:00.000,n,178,1.08,0.72,1.44,20.5,80.3,1013.92,0,0,0,0,0.031357
2018/03/16 01:28:00.011,n,48,0.36,0.36,0.72,20.5,80.3,1013.92,0,0,0,0,0.027008
2018/03/16 01:29:00.009,n,251,0.72,0.72,1.08,20.5,80.4,1013.92,0,0,0,0,0.032234
2018/03/16 01:30:00.005,n,226,2.88,0.72,3.6,20.5,80.4,1013.82,0,0,0,0,0.029602
2018/03/16 01:31:00.000,n,159,1.44,0.36,2.16,20.5,80.4,1013.82,0,0,0,0,0.028725
2018/03/16 01:32:00.000,n,316,0.36,0,0.72,20.5,80.5,1013.82,0,0,0,0,0.027885
2018/03/16 01:33:00.000,n,231,3.24,2.88,3.6,20.5,80.4,1013.82,0,0,0,0,0.027885
2018/03/16 01:34:00.000,n,241,2.52,1.8,2.88,20.4,80.3,1013.82,0,0,0,0,0.027008
2018/03/16 01:35:00.006,n,239,2.52,2.52,2.88,20.4,80.3,1013.92,0,0,0,0,0.029602
2018/03/16 01:36:00.003,n,231,2.52,2.16,2.52,20.4,80.3,1013.92,0,0,0,0,0.025253
2018/03/16 01:37:00.000,n,228,2.52,2.16,2.88,20.4,80.3,1013.92,0,0,0,0,0.024376
2018/03/16 01:38:00.013,n,204,1.08,0.72,1.8,20.4,80.4,1013.92,0,0,0,0,0.025253
2018/03/16 01:39:00.010,n,163,2.16,1.8,2.16,20.4,80.6,1013.82,0,0,0,0,0.027008
2018/03/16 01:40:00.000,n,173,2.16,1.8,2.16,20.4,81,1013.82,0,0,0,0,0.027885
2018/03/16 01:41:00.000,n,157,2.52,1.08,3.24,20.4,81.1,1013.82,0,0,0,0,0.028725
2018/03/16 01:42:00.000,n,166,2.52,2.16,2.52,20.4,81.6,1013.72,0,0,0,0,0.024376
2018/03/16 01:43:00.000,n,203,2.52,2.16,2.88,20.4,81.7,1013.72,0,0,0,0,0.027008
2018/03/16 01:44:00.000,n,145,2.52,1.44,3.6,20.3,81.9,1013.72,0,0,0,0,0.026131
2018/03/16 01:45:00.009,n,161,3.24,2.52,3.6,20.3,82.1,1013.72,0,0,0,0,0.023537
2018/03/16 01:46:00.006,n,184,1.8,1.44,2.16,20.3,82.3,1013.72,0,0,0,0,0.024376
2018/03/16 01:47:00.002,n,115,1.08,0.36,2.16,20.3,82.4,1013.72,0,0,0,0,0.027885
2018/03/16 01:48:00.000,n,132,2.52,2.16,2.88,20.2,82.6,1013.72,0,0,0,0,0.030479
2018/03/16 01:49:00.000,n,153,4.32,3.96,4.68,20.2,83,1013.72,0,0,0,0,0.027885
2018/03/16 01:50:00.000,n,179,3.6,3.6,3.96,20.1,83.3,1013.72,0,0,0,0,0.027008
2018/03/16 01:51:00.000,n,191,3.24,3.24,3.6,20.1,83.6,1013.72,0,0,0,0,0.023537
2018/03/16 01:52:00.004,n,236,2.52,2.16,2.88,20,83.7,1013.72,0,0,0,0,0.026131
2018/03/16 01:53:00.001,n,182,2.52,2.16,2.88,20,83.8,1013.72,0,0,0,0,0.025253
2018/03/16 01:54:00.000,n,163,1.08,0.72,1.44,20,83.8,1013.72,0,0,0,0,0.024376
2018/03/16 01:55:00.011,n,106,0.72,0.36,1.08,20,83.7,1013.72,0,0,0,0,0.025253
2018/03/16 01:56:00.008,n,98,0.72,0.36,0.72,20,83.8,1013.72,0,0,0,0,0.024376
2018/03/16 01:57:00.005,n,149,3.24,3.24,3.6,20,83.8,1013.72,0,0,0,0,0.026131
2018/03/16 01:58:00.000,n,166,2.16,2.16,2.52,19.9,84,1013.72,0,0,0,0,0.023537
2018/03/16 01:59:00.000,n,149,4.68,3.96,5.04,19.9,84.2,1013.72,0,0,0,0,0.026131
2018/03/16 02:00:00.000,n,139,3.6,3.6,3.96,19.9,84.4,1013.72,0,0,0,0,0.023537
2018/03/16 02:01:00.000,n,176,3.96,3.24,3.96,19.8,84.5,1013.72,0,0,0,0,0.026131
2018/03/16 02:02:00.008,n,185,2.52,2.16,3.24,19.8,84.7,1013.72,0,0,0,0,0.021782
2018/03/16 02:03:00.005,n,173,3.6,3.24,3.6,19.8,84.8,1013.72,0,0,0,0,0.022659
2018/03/16 02:04:00.002,n,184,3.96,3.6,4.32,19.8,85,1013.72,0,0,0,0,0.025253
2018/03/16 02:05:00.000,n,167,3.96,3.6,3.96,19.7,85,1013.72,0,0,0,0,0.023537
2018/03/16 02:06:00.011,n,153,1.44,1.08,1.8,19.7,85.1,1013.72,0,0,0,0,0.024376
2018/03/16 02:07:00.000,n,188,3.24,2.88,3.6,19.7,85.1,1013.72,0,0,0,0,0.021782
2018/03/16 02:08:00.000,n,212,1.8,0.36,2.88,19.7,85.2,1013.72,0,0,0,0,0.022659
2018/03/16 02:09:00.003,n,233,2.88,2.52,2.88,19.7,85.2,1013.72,0,0,0,0,0.01915
2018/03/16 02:10:00.000,n,236,3.6,3.24,3.96,19.7,85.1,1013.72,0,0,0,0,0.021782
2018/03/16 02:11:00.000,n,220,2.52,2.16,2.88,19.7,85.1,1013.72,0,0,0,0,0.018311
2018/03/16 02:12:00.010,n,230,2.16,1.44,2.88,19.6,85.1,1013.72,0,0,0,0,0.01915
2018/03/16 02:13:00.008,n,115,1.08,0.72,1.44,19.6,85.1,1013.72,0,0,0,0,0.020027
2018/03/16 02:14:00.004,n,100,1.08,0.36,1.8,19.6,85.3,1013.72,0,0,0,0,0.029602
2018/03/16 02:15:00.016,n,186,1.08,0.36,2.52,19.6,85.2,1013.72,0,0,0,0,0.031357
2018/03/16 02:16:00.000,n,92,1.08,0,1.44,19.6,85.2,1013.72,0,0,0,0,0.031357
2018/03/16 02:17:00.000,n,233,2.52,1.8,3.6,19.6,85.2,1013.72,0,0,0,0,0.029602
2018/03/16 02:18:00.000,n,214,1.08,0.72,1.44,19.6,85.2,1013.72,0,0,0,0,0.033951
2018/03/16 02:19:00.006,n,113,1.44,0.72,1.8,19.6,85.1,1013.72,0,0,0,0,0.029602
2018/03/16 02:20:00.002,n,154,0.72,0.36,1.08,19.6,85,1013.72,0,0,0,0,0.030518
2018/03/16 02:21:00.000,n,60,0.36,0.36,0.72,19.6,85.1,1013.72,0,0,0,0,0.023537
2018/03/16 02:22:00.000,n,152,2.16,1.8,2.88,19.6,85,1013.72,0,0,0,0,0.030518
2018/03/16 02:23:00.010,n,163,1.8,0.72,2.16,19.6,85.1,1013.72,0,0,0,0,0.027885
2018/03/16 02:24:00.007,n,204,1.8,1.44,2.16,19.6,85.1,1013.72,0,0,0,0,0.028725
2018/03/16 02:25:00.000,n,231,2.88,2.52,2.88,19.5,85.1,1013.72,0,0,0,0,0.027885
2018/03/16 02:26:00.001,n,233,2.16,1.08,3.24,19.5,85.1,1013.72,0,0,0,0,0.031357
2018/03/16 02:27:00.000,n,219,1.8,1.44,2.16,19.5,85.1,1013.72,0,0,0,0,0.027885
2018/03/16 02:28:00.000,n,166,1.44,0.72,1.8,19.5,85,1013.72,0,0,0,0,0.026131
2018/03/16 02:29:00.000,n,271,0.36,0.36,0.72,19.5,84.9,1013.72,0,0,0,0,0.029602
2018/03/16 02:30:00.006,n,230,2.88,2.52,3.24,19.5,84.9,1013.62,0,0,0,0,0.026131
2018/03/16 02:31:00.003,n,214,1.44,0,2.52,19.5,84.9,1013.62,0,0,0,0,0.027885
2018/03/16 02:32:00.000,n,124,1.8,1.44,2.16,19.5,85,1013.62,0,0,0,0,0.026131
2018/03/16 02:33:00.014,n,121,1.8,1.44,2.16,19.5,84.8,1013.62,0,0,0,0,0.031357
2018/03/16 02:34:00.000,n,150,1.8,1.44,2.16,19.5,84.9,1013.62,0,0,0,0,0.028725
2018/03/16 02:35:00.000,n,179,1.08,0.72,1.44,19.4,85,1013.62,0,0,0,0,0.022659
2018/03/16 02:36:00.000,n,164,1.44,0.72,2.16,19.4,84.9,1013.62,0,0,0,0,0.024376
2018/03/16 02:37:00.004,n,154,2.16,1.8,2.16,19.4,84.9,1013.62,0,0,0,0,0.027008
2018/03/16 02:38:00.001,n,178,1.44,0.36,2.16,19.4,85,1013.62,0,0,0,0,0.021782
2018/03/16 02:39:00.000,n,183,1.8,1.08,2.16,19.4,85.1,1013.62,0,0,0,0,0.026131
2018/03/16 02:40:00.011,n,174,0.72,0.36,0.72,19.4,85.1,1013.62,0,0,0,0,0.024376
2018/03/16 02:41:00.009,n,233,1.08,0.36,1.8,19.4,85.1,1013.62,0,0,0,0,0.021782
2018/03/16 02:42:00.006,n,150,3.24,2.88,3.6,19.4,85,1013.62,0,0,0,0,0.027008
2018/03/16 02:43:00.000,n,174,1.8,0.72,2.88,19.4,85.1,1013.62,0,0,0,0,0.024376
2018/03/16 02:44:00.000,n,180,3.6,3.6,3.6,19.3,85.1,1013.62,0,0,0,0,0.025291
2018/03/16 02:45:00.000,n,158,2.52,2.16,2.88,19.3,85.2,1013.62,0,0,0,0,0.018311
2018/03/16 02:46:00.000,n,168,2.52,2.16,3.24,19.3,85.2,1013.62,0,0,0,0,0.022659
2018/03/16 02:47:00.008,n,165,2.52,1.44,2.88,19.3,85.3,1013.52,0,0,0,0,0.020027
2018/03/16 02:48:00.005,n,171,2.88,1.8,3.6,19.3,85.4,1013.52,0,0,0,0,0.020943
2018/03/16 02:49:00.002,n,158,2.52,2.16,2.88,19.3,85.4,1013.52,0,0,0,0,0.020027
2018/03/16 02:50:00.000,n,161,1.44,0.72,1.8,19.3,85.4,1013.52,0,0,0,0,0.020027
2018/03/16 02:51:00.014,n,180,1.44,0.72,2.88,19.3,85.5,1013.52,0,0,0,0,0.017433
2018/03/16 02:52:00.000,n,196,1.44,0.36,2.16,19.3,85.6,1013.52,0,0,0,0,0.021782
2018/03/16 02:53:00.000,n,157,2.88,1.8,3.96,19.3,85.6,1013.52,0,0,0,0,0.020027
2018/03/16 02:54:00.000,n,176,3.24,3.24,3.6,19.3,85.6,1013.52,0,0,0,0,0.01915
2018/03/16 02:55:00.004,n,139,1.8,0.72,2.52,19.3,85.7,1013.52,0,0,0,0,0.017433
2018/03/16 02:56:00.002,n,178,3.24,2.88,3.24,19.2,85.7,1013.52,0,0,0,0,0.01915
2018/03/16 02:57:00.000,n,188,1.8,1.8,2.52,19.2,85.6,1013.52,0,0,0,0,0.02697
2018/03/16 02:58:00.012,n,166,3.6,3.6,3.96,19.2,85.6,1013.52,0,0,0,0,0.031319
2018/03/16 02:59:00.009,n,184,1.8,0.72,2.52,19.2,85.7,1013.52,0,0,0,0,0.026093
2018/03/16 03:00:00.006,n,191,2.88,2.88,3.24,19.2,85.7,1013.52,0,0,0,0,0.034828
2018/03/16 03:01:00.000,n,211,1.8,0.72,2.88,19.2,85.7,1013.62,0,0,0,0,0.032196
2018/03/16 03:02:00.000,n,161,2.16,1.44,2.16,19.2,85.7,1013.62,0,0,0,0,0.033073
2018/03/16 03:03:00.000,n,166,1.8,1.44,2.16,19.2,85.7,1013.62,0,0,0,0,0.030479
2018/03/16 03:04:00.000,n,146,2.52,1.44,2.88,19.2,85.7,1013.62,0,0,0,0,0.035667
2018/03/16 03:05:00.008,n,151,3.24,3.24,3.6,19.2,85.7,1013.62,0,0,0,0,0.028725
2018/03/16 03:06:00.005,n,168,1.8,1.08,2.52,19.2,85.7,1013.52,0,0,0,0,0.026093
2018/03/16 03:07:00.002,n,139,3.6,2.88,3.96,19.2,85.6,1013.52,0,0,0,0,0.027885
2018/03/16 03:08:00.000,n,148,4.32,3.96,5.04,19.2,85.7,1013.52,0,0,0,0,0.026093
2018/03/16 03:09:00.012,n,176,3.6,2.88,3.6,19.1,85.7,1013.52,0,0,0,0,0.029602
2018/03/16 03:10:00.000,n,156,2.88,2.88,2.88,19.1,85.8,1013.62,0,0,0,0,0.027885
2018/03/16 03:11:00.000,n,177,4.68,4.32,5.04,19.1,85.8,1013.62,0,0,0,0,0.027885
2018/03/16 03:12:00.004,n,174,5.04,4.68,5.04,19.1,85.9,1013.62,0,0,0,0,0.024376
2018/03/16 03:13:00.002,n,178,4.68,4.32,5.4,19.1,86,1013.62,0,0,0,0,0.026093
2018/03/16 03:14:00.000,n,171,5.4,5.04,5.4,19.1,86,1013.62,0,0,0,0,0.02697
2018/03/16 03:15:00.000,n,158,2.16,2.16,2.52,19,86,1013.62,0,0,0,0,0.022621
2018/03/16 03:16:00.009,n,148,2.52,1.44,3.24,19,86,1013.62,0,0,0,0,0.02697
2018/03/16 03:17:00.007,n,173,2.16,1.08,2.52,19,86.1,1013.62,0,0,0,0,0.024376
2018/03/16 03:18:00.004,n,166,3.6,2.88,4.32,19,86.1,1013.62,0,0,0,0,0.027885
2018/03/16 03:19:00.002,n,163,4.32,3.96,4.68,19,86.1,1013.62,0,0,0,0,0.022621
2018/03/16 03:20:00.000,n,191,2.52,2.52,2.88,19,86.1,1013.62,0,0,0,0,0.021744
2018/03/16 03:21:00.000,n,166,1.08,0.72,1.8,19,86.1,1013.62,0,0,0,0,0.025253
2018/03/16 03:22:00.000,n,155,3.6,3.24,3.96,19,86.1,1013.62,0,0,0,0,0.027885
2018/03/16 03:23:00.007,n,148,1.8,1.08,2.88,19,86.1,1013.62,0,0,0,0,0.024376
2018/03/16 03:24:00.004,n,145,2.16,1.8,2.88,19,86.1,1013.62,0,0,0,0,0.021744
2018/03/16 03:25:00.001,n,182,2.16,1.44,2.88,19,86.1,1013.72,0,0,0,0,0.028725
2018/03/16 03:26:00.010,n,222,1.08,0.72,1.44,19,86.1,1013.72,0,0,0,0,0.033073
2018/03/16 03:27:00.007,n,199,1.08,0.72,1.44,19,86.1,1013.72,0,0,0,0,0.033073
2018/03/16 03:28:00.000,n,213,1.44,1.08,1.44,19,86.1,1013.72,0,0,0,0,0.034866
2018/03/16 03:29:00.001,n,251,2.16,1.44,2.52,19,86.1,1013.72,0,0,0,0,0.030479
2018/03/16 03:30:00.000,n,263,2.52,2.52,2.88,19,86.2,1013.82,0,0,0,0,0.035706
2018/03/16 03:31:00.000,n,213,2.16,1.44,3.24,19,86.3,1013.82,0,0,0,0,0.032234
2018/03/16 03:32:00.000,n,233,1.8,1.08,2.16,19,86.3,1013.82,0,0,0,0,0.032234
2018/03/16 03:33:00.006,n,267,0.72,0.36,1.44,19,86.3,1013.82,0,0,0,0,0.034866
2018/03/16 03:34:00.003,n,224,2.88,2.52,3.6,19,86.3,1013.82,0,0,0,0,0.02964
2018/03/16 03:35:00.000,n,243,4.68,4.32,5.4,19,86.4,1013.92,0,0,0,0,0.033073
2018/03/16 03:36:00.013,n,292,2.16,1.8,2.88,19,86.5,1013.92,0,0,0,0,0.031357
2018/03/16 03:37:00.000,n,215,2.52,1.44,3.6,19.1,86.4,1013.92,0,0,0,0,0.032234
2018/03/16 03:38:00.000,n,218,2.88,2.16,3.24,19.1,86.3,1013.92,0,0,0,0,0.028725
2018/03/16 03:39:00.000,n,288,1.8,0.72,2.52,19.1,86.2,1013.92,0,0,0,0,0.02964
2018/03/16 03:40:00.002,n,267,0.36,0.36,0.72,19.1,86.2,1013.92,0,0,0,0,0.038338
2018/03/16 03:41:00.000,n,112,2.52,2.16,2.88,19,86.1,1013.92,0,0,0,0,0.02964
2018/03/16 03:42:00.000,n,252,1.44,0.36,2.52,19,86.1,1013.92,0,0,0,0,0.027885
2018/03/16 03:43:00.010,n,256,1.08,1.08,1.44,19,86.2,1013.92,0,0,0,0,0.02964
2018/03/16 03:44:00.007,n,326,1.08,0.36,2.16,19,86.2,1013.92,0,0,0,0,0.033073
2018/03/16 03:45:00.005,n,138,2.88,1.8,3.6,19,86.1,1013.92,0,0,0,0,0.028725
2018/03/16 03:46:00.001,n,144,4.32,3.6,4.68,19,86.1,1013.92,0,0,0,0,0.028725
2018/03/16 03:47:00.000,n,173,7.56,7.2,8.28,19,86.1,1013.92,0,0,0,0,0.032234
2018/03/16 03:48:00.000,n,178,7.56,6.48,8.64,18.9,86,1014.02,0,0,0,0,0.028725
2018/03/16 03:49:00.000,n,166,8.28,7.2,9,18.9,86,1014.02,0,0,0,0,0.031357
2018/03/16 03:50:00.005,n,179,5.04,4.68,5.76,18.9,86.2,1014.02,0,0,0,0,0.027008
2018/03/16 03:51:00.003,n,168,4.68,3.6,5.4,18.8,86.3,1014.02,0,0,0,0,0.027885
2018/03/16 03:52:00.000,n,182,5.04,4.68,5.4,18.8,86.3,1014.02,0,0,0,0,0.02964
2018/03/16 03:53:00.012,n,149,1.44,0.36,2.16,18.8,86.3,1014.02,0,0,0,0,0.026131
2018/03/16 03:54:00.011,n,254,2.88,2.16,3.6,18.8,86.5,1014.02,0,0,0,0,0.031357
2018/03/16 03:55:00.000,n,203,1.8,0.72,3.24,18.8,86.5,1014.02,0,0,0,0,0.024414
2018/03/16 03:56:00.000,n,105,1.8,1.44,2.52,18.8,86.4,1014.12,0,0,0,0,0.035706
2018/03/16 03:57:00.002,n,139,4.68,3.96,5.04,18.8,86.3,1014.12,0,0,0,0,0.028725
2018/03/16 03:58:00.000,n,58,1.08,0.36,1.8,18.8,86.4,1014.12,0,0,0,0,0.027008
2018/03/16 03:59:00.000,n,106,2.52,0.36,3.6,18.8,86.5,1014.12,0,0,0,0,0.032234
2018/03/16 04:00:00.010,n,135,1.8,0.72,2.88,18.8,86.4,1014.12,0,0,0,0,0.028725
2018/03/16 04:01:00.007,n,220,1.44,1.08,2.52,18.8,86.4,1014.12,0,0,0,0,0.033073
2018/03/16 04:02:00.004,n,159,4.32,3.6,4.68,18.8,86.3,1014.12,0,0,0,0,0.027885
2018/03/16 04:03:00.001,n,170,4.32,3.96,4.68,18.8,86.3,1014.12,0,0,0,0,0.02964
2018/03/16 04:04:00.000,n,157,3.6,2.52,3.96,18.7,86.3,1014.12,0,0,0,0,0.027008
2018/03/16 04:05:00.000,n,146,1.44,0.72,2.16,18.7,86.4,1014.12,0,0,0,0,0.027008
2018/03/16 04:06:00.000,n,160,6.84,6.12,7.2,18.7,86.3,1014.02,0,0,0,0,0.027008
2018/03/16 04:07:00.006,n,202,2.52,2.16,3.24,18.7,86.4,1014.02,0,0,0,0,0.028725
2018/03/16 04:08:00.003,n,202,2.88,2.52,3.24,18.7,86.4,1014.02,0,0,0,0,0.033073
2018/03/16 04:09:00.000,n,160,1.44,1.08,1.44,18.7,86.4,1014.02,0,0,0,0,0.026131
2018/03/16 04:10:00.000,n,201,1.08,0.36,1.8,18.7,86.4,1014.02,0,0,0,0,0.026131
2018/03/16 04:11:00.012,n,215,1.44,1.08,1.8,18.7,86.3,1014.02,0,0,0,0,0.028725
2018/03/16 04:12:00.009,n,278,2.88,2.16,3.6,18.7,86.5,1014.02,0,0,0,0,0.028725
2018/03/16 04:13:00.000,n,263,4.68,3.96,5.04,18.7,86.5,1014.02,0,0,0,0,0.025291
2018/03/16 04:14:00.003,n,245,2.52,1.08,3.6,18.7,86.6,1014.12,0,0,0,0,0.027885
2018/03/16 04:15:00.000,n,97,2.16,1.8,2.52,18.7,86.6,1014.12,0,0,0,0,0.025291
2018/03/16 04:16:00.000,n,264,3.24,2.16,3.96,18.7,86.6,1014.12,0,0,0,0,0.027885
2018/03/16 04:17:00.000,n,115,2.52,1.8,3.6,18.7,86.5,1014.12,0,0,0,0,0.028725
2018/03/16 04:18:00.009,n,153,1.44,0.72,1.8,18.7,86.6,1014.12,0,0,0,0,0.031357
2018/03/16 04:19:00.007,n,144,2.88,2.88,3.6,18.7,86.5,1014.12,0,0,0,0,0.02964
2018/03/16 04:20:00.004,n,150,1.08,0,2.52,18.7,86.5,1014.12,0,0,0,0,0.025291
2018/03/16 04:21:00.002,n,94,2.52,1.44,3.24,18.7,86.7,1014.12,0,0,0,0,0.027885
2018/03/16 04:22:00.000,n,213,2.52,1.44,3.96,18.7,86.6,1014.12,0,0,0,0,0.023499
2018/03/16 04:23:00.000,n,165,3.24,2.52,3.96,18.7,86.6,1014.12,0,0,0,0,0.021782
2018/03/16 04:24:00.000,n,96,0.72,0.36,1.8,18.7,86.6,1014.12,0,0,0,0,0.025291
2018/03/16 04:25:00.000,n,331,1.08,0.36,2.16,18.7,86.7,1014.12,0,0,0,0,0.021782
2018/03/16 04:26:00.004,n,158,0.72,0.36,1.08,18.7,86.7,1014.12,0,0,0,0,0.028725
2018/03/16 04:27:00.003,n,32,2.52,1.08,3.24,18.7,87,1014.12,0,0,0,0,0.020905
2018/03/16 04:28:00.000,n,182,1.44,0.72,1.8,18.7,86.8,1014.12,0,0,0,0,0.026131
2018/03/16 04:29:00.014,n,214,2.52,1.08,3.24,18.7,86.7,1014.12,0,0,0,0,0.02964
2018/03/16 04:30:00.012,n,193,1.8,1.44,2.52,18.7,86.7,1014.12,0,0,0,0,0.024414
2018/03/16 04:31:00.000,n,104,2.16,1.08,2.88,18.7,86.8,1014.12,0,0,0,0,0.023499
2018/03/16 04:32:00.000,n,117,2.16,2.16,2.52,18.7,86.7,1014.12,0,0,0,0,0.018311
2018/03/16 04:33:00.003,n,133,1.08,0.72,1.44,18.7,86.6,1014.12,0,0,0,0,0.026131
2018/03/16 04:34:00.000,n,237,3.6,2.16,4.68,18.7,86.7,1014.12,0,0,0,0,0.022659
2018/03/16 04:35:00.000,n,120,1.8,1.08,2.88,18.7,86.9,1014.12,0,0,0,0,0.025291
2018/03/16 04:36:00.009,n,214,0.72,0.36,1.08,18.7,86.7,1014.12,0,0,0,0,0.020905
2018/03/16 04:37:00.008,n,187,3.96,2.52,5.04,18.7,86.7,1014.12,0,0,0,0,0.021782
2018/03/16 04:38:00.005,n,131,2.52,1.8,2.88,18.7,86.7,1014.12,0,0,0,0,0.025291
2018/03/16 04:39:00.002,n,194,1.44,0.72,2.16,18.7,86.6,1014.12,0,0,0,0,0.020905
2018/03/16 04:40:00.000,n,153,3.96,3.6,3.96,18.7,86.7,1014.22,0,0,0,0,0.029602
2018/03/16 04:41:00.000,n,151,1.8,0.72,2.88,18.7,86.7,1014.22,0,0,0,0,0.031357
2018/03/16 04:42:00.000,n,119,1.08,0.36,1.44,18.7,86.6,1014.22,0,0,0,0,0.028725
2018/03/16 04:43:00.004,n,199,1.08,1.08,1.44,18.7,86.6,1014.22,0,0,0,0,0.036583
2018/03/16 04:44:00.002,n,171,2.88,2.16,3.6,18.7,86.6,1014.32,0,0,0,0,0.034828
2018/03/16 04:45:00.000,n,231,0.72,0.36,0.72,18.6,86.7,1014.32,0,0,0,0,0.027847
2018/03/16 04:46:00.012,n,142,3.6,3.24,3.96,18.6,86.8,1014.32,0,0,0,0,0.033951
2018/03/16 04:47:00.010,n,149,3.96,2.16,5.76,18.6,86.7,1014.32,0,0,0,0,0.031357
2018/03/16 04:48:00.006,n,182,2.52,2.16,2.88,18.6,86.7,1014.32,0,0,0,0,0.029602
2018/03/16 04:49:00.000,n,151,1.44,0.72,3.6,18.6,86.7,1014.32,0,0,0,0,0.031357
2018/03/16 04:50:00.000,n,92,3.24,1.8,4.68,18.6,86.7,1014.32,0,0,0,0,0.037422
2018/03/16 04:51:00.000,n,134,6.12,5.76,6.48,18.6,86.6,1014.32,0,0,0,0,0.035706
2018/03/16 04:52:00.000,n,155,2.16,1.08,3.96,18.6,86.6,1014.32,0,0,0,0,0.034828
2018/03/16 04:53:00.006,n,192,3.6,3.24,4.68,18.6,86.6,1014.32,0,0,0,0,0.027847
2018/03/16 04:54:00.004,n,164,3.24,2.16,3.96,18.6,86.6,1014.32,0,0,0,0,0.032234
2018/03/16 04:55:00.000,n,150,5.76,5.4,6.12,18.5,86.5,1014.42,0,0,0,0,0.028725
2018/03/16 04:56:00.014,n,217,3.96,3.6,4.68,18.5,86.6,1014.42,0,0,0,0,0.031357